Location: Newark
(34.9500°N, 139.9667°E)
Time: 22:33:10
(UTC+00:00)

Vanguard 2 Rocket - Pass Details

Date: 10 December 2019
Orbit: 554 x 3326 km, 32.9° (Epoch: 24 January)

Event Time Altitude Azimuth Distance (km) Brightness Sun altitude
Rises 05:04:41 0° 202° (SSW) 7,299 12.8 21.9°
Reaches altitude 10° 05:11:29 10° 190° (S) 6,163 12.3 21.0°
Maximum altitude 05:24:24 23° 147° (SSE) 4,527 10.8 19.3°
Drops below altitude 10° 05:34:21 10° 102° (ESE) 4,717 10.3 17.9°
Sets 05:38:30 0° 88° (E) 5,294 10.4 17.3°
